Location: Azul
(36.7830°S, 59.8500°W)
Time: 02:25:56
(UTC-03:00)

ISS - Pass Details

Date: 27 October 2020
Orbit: 417 x 420 km, 51.6° (Epoch: 28 October)

Event Time Altitude Azimuth Distance (km) Brightness Sun altitude
Rises 21:22:44 0° 217° (SW) 2,402 1.4 -21.3°
Reaches altitude 10° 21:26:14 10° 180° (S) 1,531 -0.5 -21.9°
Maximum altitude 21:27:19 11° 161° (SSE) 1,462 -0.8 -22.0°
Enters shadow 21:28:02 11° 149° (SSE) 1,492 -0.9 -22.1°
